sat.trackr.live / text

‹ back to catalog

STARLINK-3788

NORAD 52271 · 2022-041L

PAYLOAD ACTIVE UNKNOWN

§ Identity

Operator
Country
US
Launch date
2022-04-21
Launch site
AFETR
Launch vehicle
Mass (kg)
RCS (m²)

Purposes: comms

External: N2YO · Heavens-Above · Gunter

§ Orbital elements

Epoch: 2026-09-19T15:39:52.298496Z

Period
93.85 min
Inclination
53.1613°
Eccentricity
0.0001342
Mean motion
15.34386157 rev/d
Perigee alt
461.8 km
Apogee alt
463.7 km
Semi-major
6,840.9 km
B*
2.8086e-5
RAAN
311.5515°
Arg perigee
81.7961°
Mean anomaly
278.3194°
Rev number
24,373

§ Raw data

STARLINK-37881 52271U 22041L   26262.65268864  .00000572  00000+0  28086-4 0  99902 52271  53.1613 311.5515 0001342  81.7961 278.3194 15.34386157243737

JSON: /api/v1/satellites/52271 · /tle

For live sub-satellite position, see the globe view (requires WebGL).

§ Visibility from observer

Set your observer location to see the next 7 days of passes ≥ 10°. The values pass through the URL so the page stays shareable.

No JS? Fill the form by hand. The geolocation button needs JavaScript.